Location: Lecco
(45.8566°N, 9.3977°E)
Time: 18:56:54
(UTC+02:00)

ISS - Visible Passes

Search period start: 23 October 2018 00:00
Search period end: 01 November 2018 23:00
Orbit: 402 x 408 km, 51.6° (Epoch: 24 October)

Date Brightness Start Highest point End Pass type
(mag) Time Alt. Az. Time Alt. Az. Time Alt. Az.
24 Oct -0.1 07:15:28 10° SE 07:15:47 10° SE 07:16:07 10° SE visible
26 Oct -1.3 07:05:19 10° S 07:07:54 22° SE 07:10:32 10° E visible
27 Oct -0.8 06:14:34 10° SSE 06:16:06 13° SE 06:17:38 10° ESE visible
28 Oct -2.8 05:56:59 10° SW 06:00:07 46° SE 06:03:18 10° ENE visible
29 Oct -1.9 05:06:48 20° S 05:08:11 27° SE 05:11:01 10° E visible
30 Oct -0.7 04:17:24 14° ESE 04:17:24 14° ESE 04:18:22 10° E visible
30 Oct -3.9 05:50:06 18° WSW 05:52:25 85° NNW 05:55:43 10° ENE visible
31 Oct -3.3 05:00:31 56° SE 05:00:31 56° SE 05:03:35 10° ENE visible
01 Nov -0.5 04:10:49 13° E 04:10:49 13° E 04:11:21 10° ENE visible
01 Nov -3.4 05:43:30 30° WNW 05:44:47 48° NNW 05:47:59 10° ENE visible
